N0FDH Weather Reports


Display with metric or nautical units.
time (UTC)temp
F
wind
direction
speed
MPH
gust
MPH
rain 1hr
in
rain 24hr
in
rain mn
in
humidity
%
barometer
mb
20260507130607 40 250 4.0 4.0 0.00 0.00 0.00 59 1012.6
20260507130105 39 293 3.0 4.0 0.00 0.00 0.00 62 1012.7
20260507125604 39 290 3.0 3.0 0.00 0.00 0.00 63 1012.6
20260507125101 39 233 3.0 3.0 0.00 0.00 0.00 65 1012.7
20260507124557 39 244 1.0 3.0 0.00 0.00 0.00 65 1012.7
20260507124055 39 299 2.0 3.0 0.00 0.00 0.00 67 1012.7
20260507123553 38 245 2.0 3.0 0.00 0.00 0.00 66 1012.8
20260507123049 38 269 2.0 3.0 0.00 0.00 0.00 65 1012.6
20260507122545 38 260 1.0 2.0 0.00 0.00 0.00 68 1012.7
20260507122041 38 223 0.0 2.0 0.00 0.00 0.00 67 1012.7
20260507121536 38 222 1.0 2.0 0.00 0.00 0.00 67 1012.6
20260507121033 37 248 1.0 2.0 0.00 0.00 0.00 68 1012.5
20260507120529 37 247 2.0 2.0 0.00 0.00 0.00 68 1012.8
20260507120026 37 268 1.0 2.0 0.00 0.00 0.00 68 1012.6
20260507115522 37 274 0.0 2.0 0.00 0.00 0.00 69 1012.5
20260507115018 37 209 1.0 2.0 0.00 0.00 0.00 69 1012.5
20260507114514 37 209 1.0 1.0 0.00 0.00 0.00 68 1012.5
20260507114011 37 233 0.0 1.0 0.00 0.00 0.00 71 1012.6
20260507113509 37 233 0.0 1.0 0.00 0.00 0.00 72 1012.5
20260507113006 37 233 0.0 0.0 0.00 0.00 0.00 72 1012.5
20260507112503 37 233 0.0 1.0 0.00 0.00 0.00 71 1012.3
20260507112000 37 233 1.0 2.0 0.00 0.00 0.00 69 1012.3
20260507111457 37 233 1.0 2.0 0.00 0.00 0.00 70 1012.3
20260507110953 37 282 2.0 3.0 0.00 0.00 0.00 69 1012.3
20260507110450 37 280 1.0 2.0 0.00 0.00 0.00 68 1012.3
20260507105946 37 235 2.0 2.0 0.00 0.00 0.00 69 1012.4
20260507105443 37 243 1.0 2.0 0.00 0.00 0.00 69 1012.4
20260507104940 37 283 0.0 2.0 0.00 0.00 0.00 68 1012.2
20260507104437 37 220 2.0 2.0 0.00 0.00 0.00 68 1012.3
20260507103932 37 260 2.0 2.0 0.00 0.00 0.00 69 1012.4
20260507103430 37 243 2.0 2.0 0.00 0.00 0.00 69 1012.3
20260507102925 37 219 1.0 1.0 0.00 0.00 0.00 69 1012.4
20260507102423 37 287 1.0 2.0 0.00 0.00 0.00 69 1012.3
20260507101919 37 292 1.0 2.0 0.00 0.00 0.00 70 1012.5
20260507101414 37 235 1.0 1.0 0.00 0.00 0.00 70 1012.3
20260507100911 37 235 1.0 1.0 0.00 0.00 0.00 70 1012.4
20260507100408 37 239 1.0 1.0 0.00 0.00 0.00 69 1012.6
20260507095907 37 285 0.0 0.0 0.00 0.00 0.00 71 1012.4
20260507095403 37 285 0.0 0.0 0.00 0.00 0.00 70 1012.4
20260507094900 37 285 0.0 1.0 0.00 0.00 0.00 71 1012.3
20260507094357 37 212 0.0 0.0 0.00 0.00 0.00 69 1012.4
20260507093854 37 253 1.0 1.0 0.00 0.00 0.00 69 1012.5
20260507093352 37 253 0.0 1.0 0.00 0.00 0.00 70 1012.4
20260507092850 37 253 1.0 1.0 0.00 0.00 0.00 69 1012.2
20260507092346 37 235 2.0 2.0 0.00 0.00 0.00 70 1012.4
20260507091842 37 228 1.0 2.0 0.00 0.00 0.00 72 1012.4
20260507091339 37 228 1.0 2.0 0.00 0.00 0.00 72 1012.4
20260507090834 36 228 0.0 0.0 0.00 0.00 0.00 70 1012.2
20260507090331 36 228 0.0 0.0 0.00 0.00 0.00 70 1012.4
20260507085828 35 228 0.0 0.0 0.00 0.00 0.00 73 1012.3
20260507085325 36 228 0.0 0.0 0.00 0.00 0.00 74 1012.2
20260507084822 36 228 0.0 0.0 0.00 0.00 0.00 72 1012.2
20260507084319 36 227 0.0 0.0 0.00 0.00 0.00 70 1012.2
20260507083816 36 228 0.0 0.0 0.00 0.00 0.00 71 1012.3
20260507083312 36 228 0.0 0.0 0.00 0.00 0.00 71 1012.3
20260507082808 36 228 0.0 0.0 0.00 0.00 0.00 70 1012.3
20260507082306 36 228 0.0 0.0 0.00 0.00 0.00 71 1012.1
20260507081802 36 228 0.0 0.0 0.00 0.00 0.00 72 1012.1
20260507081257 36 228 0.0 0.0 0.00 0.00 0.00 72 1012.4
20260507080754 36 228 0.0 0.0 0.00 0.00 0.00 72 1012.2
20260507080250 36 228 0.0 0.0 0.00 0.00 0.00 74 1012.1
20260507075746 36 228 0.0 0.0 0.00 0.00 0.00 75 1012.3
20260507075242 36 228 0.0 0.0 0.00 0.00 0.00 75 1012.3
20260507074738 36 228 0.0 0.0 0.00 0.00 0.00 75 1012.3
20260507074237 36 228 0.0 0.0 0.00 0.00 0.00 71 1012.4
20260507073733 36 228 0.0 0.0 0.00 0.00 0.00 72 1012.4
20260507073230 36 228 0.0 0.0 0.00 0.00 0.00 73 1012.5
20260507072728 36 228 0.0 0.0 0.00 0.00 0.00 71 1012.3
20260507072225 36 228 0.0 0.0 0.00 0.00 0.00 70 1012.5
20260507071722 36 228 0.0 0.0 0.00 0.00 0.00 71 1012.8
20260507071219 37 228 0.0 0.0 0.00 0.00 0.00 72 1012.8
20260507070716 37 228 0.0 0.0 0.00 0.00 0.00 71 1012.8
20260507070213 37 228 0.0 0.0 0.00 0.00 0.00 70 1012.9
20260507065709 37 228 0.0 0.0 0.00 0.00 0.00 70 1012.8
20260507065206 37 228 0.0 0.0 0.00 0.00 0.00 71 1012.9
20260507064703 37 228 0.0 0.0 0.00 0.00 0.00 71 1013.0
20260507064202 37 228 0.0 0.0 0.00 0.00 0.00 71 1013.1
20260507063659 37 228 0.0 0.0 0.00 0.00 0.00 72 1012.9
20260507063155 37 228 0.0 0.0 0.00 0.00 0.00 71 1012.9
20260507062652 37 228 0.0 0.0 0.00 0.00 0.00 69 1013.1
20260507062150 37 228 0.0 0.0 0.00 0.00 0.00 69 1013.2
20260507061648 37 228 0.0 0.0 0.00 0.00 0.00 69 1013.0
20260507061145 37 228 0.0 0.0 0.00 0.00 0.00 69 1013.1
20260507060643 37 228 0.0 0.0 0.00 0.00 0.00 69 1013.2
20260507060140 37 228 0.0 0.0 0.00 0.00 0.00 69 1013.2
20260507055635 37 228 0.0 0.0 0.00 0.00 0.00 68 1013.3
20260507055131 37 228 0.0 0.0 0.00 0.00 0.00 65 1013.2
20260507054627 37 228 0.0 0.0 0.00 0.00 0.00 66 1013.3
20260507054125 37 228 0.0 0.0 0.00 0.00 0.00 66 1013.3
20260507053622 37 228 0.0 0.0 0.00 0.00 0.00 66 1013.3
20260507053121 38 228 0.0 0.0 0.00 0.00 0.00 66 1013.3
20260507052618 37 228 0.0 0.0 0.00 0.00 0.00 65 1013.5
20260507052114 38 228 0.0 0.0 0.00 0.00 0.00 64 1013.3
20260507051612 38 228 0.0 0.0 0.00 0.00 0.00 64 1013.3
20260507051109 38 228 0.0 0.0 0.00 0.00 0.00 64 1013.6
20260507050605 38 228 0.0 0.0 0.00 0.00 0.00 64 1013.5
20260507045559 38 228 0.0 0.0 0.00 0.00 0.00 63 1013.6
20260507045056 38 228 0.0 0.0 0.00 0.00 0.00 63 1013.9
20260507044553 38 228 0.0 0.0 0.00 0.00 0.00 63 1013.6
20260507044050 38 228 0.0 0.0 0.00 0.00 0.00 63 1013.8
20260507043545 38 228 0.0 0.0 0.00 0.00 0.00 64 1013.7
20260507043043 38 228 0.0 0.0 0.00 0.00 0.00 64 1013.8
20260507042538 38 228 0.0 0.0 0.00 0.00 0.00 62 1013.7
20260507042034 38 228 0.0 0.0 0.00 0.00 0.00 61 1013.8
20260507041532 38 228 0.0 0.0 0.00 0.00 0.00 61 1013.9
20260507041028 38 228 0.0 0.0 0.00 0.00 0.00 61 1013.8
20260507040525 38 228 0.0 0.0 0.00 0.00 0.00 61 1013.9
20260507040020 38 228 0.0 0.0 0.00 0.00 0.00 60 1014.0
20260507035517 38 228 0.0 0.0 0.00 0.00 0.00 60 1014.0
20260507035014 38 228 0.0 0.0 0.00 0.00 0.00 63 1014.0
20260507034511 38 228 0.0 0.0 0.00 0.00 0.00 61 1014.1
20260507034009 38 228 0.0 0.0 0.00 0.00 0.00 60 1014.1
20260507033506 39 228 0.0 0.0 0.00 0.00 0.00 62 1014.2
20260507033003 39 228 0.0 0.0 0.00 0.00 0.00 63 1014.2
20260507032500 39 228 0.0 0.0 0.00 0.00 0.00 59 1014.3
20260507031956 39 228 0.0 0.0 0.00 0.00 0.00 59 1014.2
20260507031452 39 228 0.0 0.0 0.00 0.00 0.00 62 1014.4
20260507030950 39 228 0.0 0.0 0.00 0.00 0.00 61 1014.4
20260507030447 39 228 0.0 0.0 0.00 0.00 0.00 59 1014.1
20260507025944 39 228 0.0 0.0 0.00 0.00 0.00 61 1014.3
20260507025441 39 228 0.0 0.0 0.00 0.00 0.00 61 1014.2
20260507024939 39 228 0.0 0.0 0.00 0.00 0.00 60 1014.5
20260507024436 39 228 0.0 0.0 0.00 0.00 0.00 58 1014.3
20260507023931 40 228 0.0 0.0 0.00 0.00 0.00 57 1014.2
20260507023429 40 228 0.0 1.0 0.00 0.00 0.00 57 1014.4
20260507022926 40 228 0.0 1.0 0.00 0.00 0.00 56 1014.4
20260507022423 40 228 0.0 1.0 0.00 0.00 0.00 57 1014.4
20260507021918 40 228 0.0 1.0 0.00 0.00 0.00 56 1014.4
20260507021414 40 228 0.0 1.0 0.00 0.00 0.00 56 1014.4
20260507020912 40 228 1.0 2.0 0.00 0.00 0.00 57 1014.4
20260507020408 40 228 1.0 1.0 0.00 0.00 0.00 57 1014.2
20260507015905 40 236 1.0 1.0 0.00 0.00 0.00 56 1014.2
20260507015403 40 237 0.0 1.0 0.00 0.00 0.00 55 1014.2
20260507014900 40 293 1.0 1.0 0.00 0.00 0.00 57 1014.2
20260507014356 41 241 0.0 1.0 0.00 0.00 0.00 55 1014.2
20260507013853 41 306 2.0 2.0 0.00 0.00 0.00 55 1014.1
20260507013350 41 290 2.0 2.0 0.00 0.00 0.00 56 1014.2
20260507012847 41 291 1.0 2.0 0.00 0.00 0.00 55 1014.2
20260507012344 41 266 2.0 3.0 0.00 0.00 0.00 56 1014.0
20260507011841 41 241 2.0 2.0 0.00 0.00 0.00 57 1014.3
20260507011338 41 271 2.0 3.0 0.00 0.00 0.00 56 1014.2
20260507010837 41 237 4.0 4.0 0.00 0.00 0.00 55 1014.3
20260507010333 41 245 2.0 7.0 0.00 0.00 0.00 54 1014.3
20260507005831 41 234 2.0 6.0 0.00 0.00 0.00 54 1014.1
20260507005327 41 223 4.0 4.0 0.00 0.00 0.00 56 1014.5
20260507004824 41 290 3.0 4.0 0.00 0.00 0.00 56 1014.5
20260507004321 41 285 3.0 6.0 0.00 0.00 0.00 56 1014.4
20260507003818 41 293 2.0 3.0 0.00 0.00 0.00 55 1014.3
20260507003313 41 293 3.0 3.0 0.00 0.00 0.00 54 1014.3
20260507002809 41 245 4.0 4.0 0.00 0.00 0.00 57 1014.3
20260507002306 41 246 7.0 7.0 0.00 0.00 0.00 54 1014.5
20260507001803 41 286 4.0 8.0 0.00 0.00 0.00 55 1014.4
20260507001300 41 278 2.0 4.0 0.00 0.00 0.00 52 1014.3
20260507000756 41 290 4.0 8.0 0.00 0.00 0.00 53 1014.4
20260507000252 41 276 2.0 7.0 0.00 0.00 0.00 53 1014.3
20260506235749 41 249 3.0 6.0 0.00 0.00 0.00 54 1014.4
20260506235244 41 250 6.0 7.0 0.00 0.00 0.00 54 1014.5
20260506234741 41 262 2.0 7.0 0.00 0.00 0.00 53 1014.4
20260506234238 42 317 4.0 7.0 0.00 0.00 0.00 53 1014.4
20260506233736 42 318 3.0 6.0 0.00 0.00 0.00 53 1014.7
20260506233232 42 309 4.0 7.0 0.00 0.00 0.00 53 1014.6
20260506232729 41 279 4.0 6.0 0.00 0.00 0.00 54 1014.5
20260506232224 42 186 2.0 7.0 0.00 0.00 0.00 54 1014.5
20260506231721 41 291 3.0 4.0 0.00 0.00 0.00 53 1014.5
20260506231220 41 341 4.0 4.0 0.00 0.00 0.00 53 1014.6
20260506230716 42 261 5.0 6.0 0.00 0.00 0.00 54 1014.6
20260506230213 42 253 7.0 8.0 0.00 0.00 0.00 53 1014.7
20260506225709 42 276 3.0 6.0 0.00 0.00 0.00 51 1014.7
20260506225206 42 290 4.0 8.0 0.00 0.00 0.00 51 1014.6
20260506224703 42 326 4.0 4.0 0.00 0.00 0.00 53 1014.6
20260506224200 41 245 3.0 6.0 0.00 0.00 0.00 55 1014.7
20260506223656 42 286 3.0 7.0 0.00 0.00 0.00 52 1014.8
20260506223152 42 259 6.0 8.0 0.00 0.00 0.00 54 1014.6
20260506222649 42 286 6.0 10.0 0.00 0.00 0.00 54 1014.6
20260506222145 42 277 6.0 9.0 0.00 0.00 0.00 52 1014.8
20260506221643 42 249 3.0 4.0 0.00 0.00 0.00 55 1014.6
20260506221141 41 294 2.0 7.0 0.00 0.00 0.00 54 1014.6
20260506220638 41 259 6.0 7.0 0.00 0.00 0.00 54 1014.7
20260506220132 41 227 4.0 6.0 0.00 0.00 0.00 53 1014.8
20260506215630 42 255 5.0 9.0 0.00 0.00 0.00 55 1014.6
20260506215125 42 282 5.0 8.0 0.00 0.00 0.00 54 1014.6
20260506214622 42 222 3.0 7.0 0.00 0.00 0.00 52 1014.6
20260506214119 42 301 3.0 7.0 0.00 0.00 0.00 52 1014.5
20260506213618 42 293 4.0 6.0 0.00 0.00 0.00 54 1014.7
20260506213114 42 336 6.0 7.0 0.00 0.00 0.00 54 1014.6
20260506212611 42 254 7.0 10.0 0.00 0.00 0.00 54 1014.6
20260506212106 42 218 6.0 7.0 0.00 0.00 0.00 53 1014.5
20260506211602 42 295 5.0 7.0 0.00 0.00 0.00 54 1014.6
20260506211100 42 238 3.0 9.0 0.00 0.00 0.00 52 1014.7
20260506210556 42 330 5.0 6.0 0.00 0.00 0.00 55 1014.6
20260506210053 43 256 6.0 8.0 0.00 0.00 0.00 50 1014.6
20260506205549 42 326 4.0 7.0 0.00 0.00 0.00 53 1014.6
20260506205044 42 271 4.0 7.0 0.00 0.00 0.00 53 1014.6
20260506204543 42 257 3.0 6.0 0.00 0.00 0.00 53 1014.8
20260506204039 42 318 4.0 8.0 0.00 0.00 0.00 52 1014.9
20260506203538 42 329 4.0 7.0 0.00 0.00 0.00 55 1014.8
20260506203034 42 266 7.0 9.0 0.00 0.00 0.00 53 1014.7
20260506202532 42 327 5.0 10.0 0.00 0.00 0.00 51 1014.9
20260506202028 42 310 2.0 4.0 0.00 0.00 0.00 52 1015.0
20260506201526 42 290 3.0 7.0 0.00 0.00 0.00 51 1014.7
20260506201022 42 12 2.0 6.0 0.00 0.00 0.00 53 1014.7
20260506200518 42 303 3.0 6.0 0.00 0.00 0.00 52 1014.9
20260506200015 41 309 4.0 10.0 0.00 0.00 0.00 57 1014.9
20260506195512 41 354 4.0 8.0 0.00 0.00 0.00 52 1014.9
20260506195008 41 287 9.0 10.0 0.00 0.00 0.00 53 1015.0
20260506194506 41 231 7.0 8.0 0.00 0.00 0.00 54 1014.9
20260506194002 41 4 1.0 7.0 0.00 0.00 0.00 52 1015.0
20260506193500 41 238 4.0 7.0 0.00 0.00 0.00 54 1014.8
20260506192956 41 317 3.0 8.0 0.00 0.00 0.00 54 1015.1
20260506192453 41 325 3.0 7.0 0.00 0.00 0.00 55 1015.0
20260506191949 41 228 3.0 4.0 0.00 0.00 0.00 54 1015.2
20260506191446 40 257 3.0 6.0 0.00 0.00 0.00 59 1015.1
20260506190942 40 284 6.0 10.0 0.00 0.00 0.00 57 1015.1
20260506190440 39 304 2.0 7.0 0.00 0.00 0.00 54 1015.2
20260506185936 40 146 5.0 8.0 0.00 0.00 0.00 58 1015.1
20260506185434 40 299 6.0 8.0 0.00 0.00 0.00 58 1015.0
20260506184931 39 296 5.0 7.0 0.00 0.00 0.00 56 1015.1
20260506184427 39 292 4.0 8.0 0.00 0.00 0.00 57 1015.0
20260506183925 40 277 4.0 8.0 0.00 0.00 0.00 57 1015.2
20260506183420 39 301 4.0 4.0 0.00 0.00 0.00 59 1015.1
20260506182918 39 217 3.0 6.0 0.00 0.00 0.00 58 1015.1
20260506182415 39 328 6.0 8.0 0.00 0.00 0.00 59 1015.2
20260506181912 39 268 5.0 8.0 0.00 0.00 0.00 62 1015.2
20260506181410 39 272 3.0 7.0 0.00 0.00 0.00 58 1015.1
20260506180906 39 260 7.0 7.0 0.00 0.00 0.00 61 1015.2
20260506180403 39 265 5.0 8.0 0.00 0.00 0.00 61 1015.3
20260506175900 39 262 4.0 8.0 0.00 0.00 0.00 60 1015.2
20260506175356 39 253 3.0 6.0 0.00 0.00 0.00 60 1015.1
20260506174853 39 281 4.0 8.0 0.00 0.00 0.00 60 1015.2
20260506174351 39 246 5.0 7.0 0.00 0.00 0.00 60 1015.3
20260506173848 39 266 7.0 8.0 0.00 0.00 0.00 60 1015.2
20260506173344 39 283 4.0 4.0 0.00 0.00 0.00 59 1015.4
20260506172842 39 247 4.0 8.0 0.00 0.00 0.00 58 1015.5
20260506172338 39 318 4.0 8.0 0.00 0.00 0.00 55 1015.2
20260506171836 39 337 6.0 8.0 0.00 0.00 0.00 59 1015.2
20260506171333 39 323 4.0 7.0 0.00 0.00 0.00 56 1015.3
20260506170831 39 300 4.0 6.0 0.00 0.00 0.00 57 1015.4
20260506170326 39 310 3.0 4.0 0.00 0.00 0.00 56 1015.5
20260506165826 39 289 5.0 8.0 0.00 0.00 0.00 59 1015.3
20260506165323 39 344 2.0 6.0 0.00 0.00 0.00 55 1015.4
20260506164819 39 319 4.0 7.0 0.00 0.00 0.00 57 1015.4
20260506164316 39 238 5.0 8.0 0.00 0.00 0.00 56 1015.4
20260506163813 39 331 3.0 4.0 0.00 0.00 0.00 57 1015.4
20260506163307 38 328 3.0 7.0 0.00 0.00 0.00 58 1015.4
20260506162804 38 323 3.0 4.0 0.00 0.00 0.00 55 1015.4
20260506162306 38 331 8.0 9.0 0.00 0.00 0.00 58 1015.4
20260506161759 38 358 7.0 8.0 0.00 0.00 0.00 57 1015.4
20260506161256 38 249 3.0 9.0 0.00 0.00 0.00 56 1015.3
20260506160754 38 325 4.0 7.0 0.00 0.00 0.00 59 1015.4
20260506160250 39 291 5.0 9.0 0.00 0.00 0.00 57 1015.4
20260506155749 38 317 4.0 6.0 0.00 0.00 0.00 60 1015.5
20260506155245 38 280 6.0 10.0 0.00 0.00 0.00 57 1015.5
20260506153352 38 293 5.0 9.0 0.00 0.00 0.00 57 1015.5
20260506152849 38 313 4.0 8.0 0.00 0.00 0.00 58 1015.4
20260506152346 38 303 5.0 8.0 0.00 0.00 0.00 58 1015.4
20260506151845 37 298 2.0 4.0 0.00 0.00 0.00 58 1015.4
20260506151341 38 328 5.0 7.0 0.00 0.00 0.00 56 1015.3
20260506150839 37 331 5.0 7.0 0.00 0.00 0.00 59 1015.2
20260506150335 38 268 6.0 9.0 0.00 0.00 0.00 55 1015.1
20260506145832 37 309 3.0 6.0 0.00 0.00 0.00 57 1015.3
20260506145328 37 318 2.0 4.0 0.00 0.00 0.00 56 1015.2
20260506144826 37 346 5.0 7.0 0.00 0.00 0.00 56 1015.3
20260506144322 37 310 5.0 8.0 0.00 0.00 0.00 56 1015.3
20260506143821 37 324 4.0 4.0 0.00 0.00 0.00 57 1015.2
20260506143317 37 330 3.0 9.0 0.00 0.00 0.00 56 1015.0
20260506142816 37 339 4.0 7.0 0.00 0.00 0.00 57 1014.9
20260506142313 37 309 3.0 4.0 0.00 0.00 0.00 57 1015.0
20260506141811 37 256 4.0 6.0 0.00 0.00 0.00 58 1014.8
20260506141309 37 342 4.0 4.0 0.00 0.00 0.00 55 1014.8
20260506140807 37 40 2.0 7.0 0.00 0.00 0.00 54 1014.8
20260506140303 37 335 3.0 8.0 0.00 0.00 0.00 55 1015.0
20260506135801 37 298 3.0 8.0 0.00 0.00 0.00 54 1014.9
20260506135256 37 334 4.0 7.0 0.00 0.00 0.00 56 1014.9
20260506134754 37 348 2.0 2.0 0.00 0.00 0.00 55 1014.9
20260506134250 37 298 3.0 7.0 0.00 0.00 0.00 54 1014.8
20260506133747 37 261 1.0 6.0 0.00 0.00 0.00 58 1014.8
20260506133244 37 343 4.0 6.0 0.00 0.00 0.00 59 1014.7
20260506132740 37 302 4.0 4.0 0.00 0.00 0.00 60 1014.7
20260506132238 37 324 3.0 4.0 0.00 0.00 0.00 58 1014.8
20260506131736 37 357 3.0 7.0 0.00 0.00 0.00 55 1014.7
20260506131231 36 307 2.0 3.0 0.00 0.00 0.00 57 1014.7
20260506130728 36 307 2.0 3.0 0.00 0.00 0.00 58 1014.6